This demonstration page uses our WeatherBlox Daily Observations layout. Learn more.

Left ArrowRight Arrow

Hourly Observations for November 25, 2021

Temp ( °F °C ) Dew Point ( °F °C ) Humidity (%) Winds ( mph kmh ) Pressure ( in mb ) Visibility ( mi km ) Precip ( " mm )
12:53 am 00:53 Cloudy 32 0 25 -3.9 75 75 WSW 9 15 30.19 1022 10 16 0.00 0.00
1:53 am 01:53 Clear 29 -1.7 22 -5.6 75 75 SW 14 22 30.16 1022 10 16 0.00 0.00
2:53 am 02:53 Clear 31 -0.6 23 -5 72 72 SW 21 33 30.13 1020 10 16 0.00 0.00
3:53 am 03:53 Clear 33 0.6 24 -4.4 70 70 SW 24 39 30.10 1019 10 16 0.00 0.00
4:53 am 04:53 Clear 32 0 24 -4.4 73 73 SW 21 33 30.11 1020 10 16 0.00 0.00
5:53 am 05:53 Clear 33 0.6 25 -3.9 72 72 SW 23 37 30.09 1019 10 16 0.00 0.00
6:53 am 06:53 Clear 34 1.1 26 -3.3 73 73 SW 21 33 30.08 1019 10 16 0.00 0.00
7:53 am 07:53 Sunny 35 1.7 26 -3.3 70 70 SW 24 39 30.07 1018 10 16 0.00 0.00
8:53 am 08:53 Sunny 37 2.8 28 -2.2 70 70 SW 18 30 30.08 1019 10 16 0.00 0.00
9:53 am 09:53 Sunny 38 3.3 29 -1.7 70 70 SW 21 33 30.10 1019 10 16 0.00 0.00
10:53 am 10:53 Sunny 39 3.9 30 -1.1 70 70 SW 25 41 30.07 1018 10 16 0.00 0.00
11:53 am 11:53 Sunny 41 5 29 -1.7 62 62 SW 29 46 30.05 1018 10 16 0.00 0.00
12:53 pm 12:53 Sunny 43 6.1 30 -1.1 60 60 SW 29 46 29.99 1016 10 16 0.00 0.00
1:53 pm 13:53 Sunny 45 7.2 31 -0.6 58 58 SW 25 41 29.99 1016 10 16 0.00 0.00
2:53 pm 14:53 Sunny 46 7.8 32 0 58 58 SW 22 35 29.97 1015 10 16 0.00 0.00
3:53 pm 15:53 Sunny 43 6.1 31 -0.6 63 63 SW 7 11 29.99 1016 10 16 0.00 0.00
4:53 pm 16:53 Clear 46 7.8 30 -1.1 54 54 WSW 16 26 29.97 1015 10 16 0.00 0.00
5:53 pm 17:53 Mostly Clear 49 9.4 30 -1.1 48 48 SW 25 41 29.96 1014 10 16 0.00 0.00
6:53 pm 18:53 Clear 48 8.9 31 -0.6 52 52 SW 26 43 29.94 1014 10 16 0.00 0.00
7:53 pm 19:53 Clear 50 10 30 -1.1 46 46 SW 26 43 29.92 1013 10 16 0.00 0.00
8:53 pm 20:53 Clear 48 8.9 31 -0.6 52 52 SW 21 33 29.92 1013 10 16 0.00 0.00
9:53 pm 21:53 Clear 49 9.4 32 0 52 52 SW 28 44 29.89 1012 10 16 0.00 0.00
10:53 pm 22:53 Clear 46 7.8 32 0 58 58 WSW 16 26 29.89 1012 10 16 0.00 0.00
11:53 pm 23:53 Clear 43 6.1 32 0 65 65 W 12 19 29.89 1012 10 16 0.00 0.00

Powered by AerisWeather